Location: Asheville, NC
(35.6000°N, 82.5500°W)
Time: 01:27:24
(UTC-05:00)

Vanguard 2 - Pass Details

Date: 10 February 2018
Orbit: 553 x 2939 km, 32.9° (Epoch: 23 February)

Event Time Altitude Azimuth Distance (km) Brightness Sun altitude
Rises 21:18:21 0° 243° (WSW) 3,635 11.6 -39.2°
Reaches altitude 10° 21:21:29 10° 237° (WSW) 2,390 10.4 -39.8°
Enters shadow 21:21:59 12° 235° (SW) 2,198 10.2 -39.9°
Maximum altitude 21:26:25 41° 167° (SSE) 922 - -40.8°
Drops below altitude 10° 21:30:14 10° 96° (E) 1,851 - -41.6°
Sets 21:32:23 0° 88° (E) 2,713 - -42.0°
